This is the latest recevied weather packets stored in our database for station/object KI5RAB. If no packets are shown the sender has not sent any weather packets the latest 10 day(s).
| Time | Temp. | Humidity | Pressure | Rain* | Wind** | Luminosity | Snow |
|---|---|---|---|---|---|---|---|
| 1777602365 | 21.67° C | 80% | 1014.1 hPa | 0 mm | - | 0 W/m² | - |
| 1777602062 | 21.67° C | 80% | 1013.6 hPa | 0 mm | - | 0 W/m² | - |
| 1777601762 | 21.67° C | 80% | 1013.2 hPa | 0 mm | - | 0 W/m² | - |
| 1777601458 | 21.67° C | 80% | 1013.6 hPa | 0 mm | - | 0 W/m² | - |
| 1777601154 | 22.22° C | 80% | 1013.9 hPa | 0 mm | - | 0 W/m² | - |
| 1777600851 | 22.22° C | 80% | 1014.1 hPa | 0 mm | - | 0 W/m² | - |
| 1777600547 | 22.22° C | 80% | 1013.6 hPa | 0 mm | - | 0 W/m² | - |
| 1777600243 | 22.22° C | 81% | 1013.1 hPa | 0 mm | - | 0 W/m² | - |
| 1777599938 | 22.22° C | 81% | 1012.9 hPa | 0 mm | - | 0 W/m² | - |
| 1777599636 | 22.22° C | 80% | 1012.9 hPa | 0 mm | - | 0 W/m² | - |
| 1777599332 | 22.22° C | 80% | 1012.6 hPa | 0 mm | - | 0 W/m² | - |
| 1777599029 | 22.22° C | 79% | 1012.7 hPa | 0 mm | - | 0 W/m² | - |
| 1777598726 | 22.78° C | 78% | 1012.7 hPa | 0 mm | - | 0 W/m² | - |
| 1777598422 | 22.78° C | 77% | 1012.9 hPa | 0 mm | - | 0 W/m² | - |
| 1777598121 | 22.78° C | 77% | 1013 hPa | 0 mm | - | 0 W/m² | - |
| 1777597815 | 22.78° C | 76% | 1013.1 hPa | 0 mm | - | 0 W/m² | - |
| 1777597509 | 22.78° C | 76% | 1012.8 hPa | 0 mm | - | 1 W/m² | - |
| 1777597206 | 22.78° C | 76% | 1012.5 hPa | 0 mm | - | 2 W/m² | - |
| 1777596901 | 22.78° C | 75% | 1012.4 hPa | 0 mm | - | 3 W/m² | - |
| 1777596598 | 22.78° C | 75% | 1012.5 hPa | 0 mm | - | 3 W/m² | - |
| 1777596294 | 22.78° C | 74% | 1012.8 hPa | 0 mm | - | 4 W/m² | - |
| 1777595992 | 22.78° C | 74% | 1013 hPa | 0 mm | - | 6 W/m² | - |
| 1777595681 | 23.33° C | 74% | 1013.3 hPa | 0 mm | - | 10 W/m² | - |
| 1777595377 | 23.33° C | 74% | 1013.2 hPa | 0 mm | - | 21 W/m² | - |
| 1777595074 | 23.33° C | 74% | 1012.9 hPa | 0 mm | - | 36 W/m² | - |
* Rain latest hour (hover to see other rain measurements)
** Current wind speed in m/s (hover to see current wind gust speed)